Content
SEND FEEDBACK

Daily
Averages
Monthly
Summary
Mexico

LA TIMA, TAMAULIPAS


Home > North America > Mexico > Tamaulipas
Elevation: 52 feet     Latitude: 22 43N     Longitude: 097 55W

WEATHER
 
SELECT A DAY
Number of Records: 167,744;   Date Range: 1/1/95 - 8/10/14
 
SHARE

PRINT THIS DATA

[ ← Previous Day ]
WEATHER ALMANAC - JANUARY 23, 2013
[ Next Day → ]
[ °C ]   °F
Weather ElementAverageHighLow
Temperature70.2 °F75.2 °F (1:41 pm)64.4 °F (6:40 am)
Dewpoint63.6 °F67 °F (2:40 am)60.8 °F (9:41 pm)
Humidity79.3 %98 % (2:40 am)64 % (5:40 pm)
Barometer30.27 in30.35 in (11:40 am)30.17 in (5:41 am)
Wind Speed2.7 mph8.1 mph (5:42 pm)
Weather ElementAverage
Visibility7.6 mi
Wind DirectionESE (124.2 °)

Weather ElementTotal
Precipitation---
Cooling Degree Days4.8 (Base 65)
Growing Degree Days19.8 (Base 50)
Averaged from 25 records on January 23, 2013
WEATHER CONDITIONS BREAKOUT
WIND DIRECTION BREAKOUT
WEATHER BY HOUR - JANUARY 23, 2013
[ °C ]   °F
Local TimeTemperatureDewpointHumidityBarometerVisibilityWind DirectionWind SpeedGust SpeedPrecipitationEventsConditions
2:40 AM68.0 °F67.0 °F98 %30.25 in6.0 miWest (270°)2.2 mphPartly Cloudy
5:40 AM65.0 °F65.0 °F98 %30.26 in6.0 miNW (320°)2.2 mphPartly Cloudy
5:41 AM66.2 °F62.6 °F88 %30.17 in5.0 miCalmClear
6:40 AM64.4 °F62.6 °F94 %30.24 in5.0 miCalmClear
7:42 AM64.4 °F62.6 °F94 %30.26 in5.0 miCalmPartly Cloudy
8:41 AM68.0 °F64.4 °F88 %30.29 in7.0 miCalmPartly Cloudy
8:45 AM67.0 °F64.0 °F87 %30.33 in9.0 miNW (310°)2.2 mphHaze
9:45 AM71.6 °F64.4 °F78 %30.31 in7.0 miWNW (290°)4.6 mphMostly Cloudy
10:43 AM71.6 °F64.4 °F78 %30.32 in7.0 miNW (310°)4.6 mphMostly Cloudy
11:40 AM73.0 °F67.0 °F76 %30.35 in12.0 miCalmRainLight Rain
11:41 AM73.4 °F64.4 °F73 %30.31 in7.0 miNNW (330°)4.6 mphMostly Cloudy
12:42 PM73.4 °F62.6 °F69 %30.28 in7.0 miNNE (30°)4.6 mphMostly Cloudy
1:41 PM75.2 °F62.6 °F65 %30.25 in7.0 miWNW (300°)5.8 mphMostly Cloudy
2:44 PM75.2 °F62.6 °F65 %30.23 in7.0 miWNW (290°)5.8 mphMostly Cloudy
2:45 PM74.0 °F66.0 °F70 %30.27 in15.0 miWest (270°)2.2 mphPartly Cloudy
3:50 PM73.4 °F62.6 °F69 %30.22 in7.0 miNE (50°)6.9 mphMostly Cloudy
4:40 PM73.4 °F62.6 °F69 %30.23 in7.0 miNE (40°)5.8 mphMostly Cloudy
5:40 PM75.0 °F65.0 °F64 %30.28 in15.0 miENE (70°)4.5 mphPartly Cloudy
5:42 PM71.6 °F62.6 °F73 %30.19 in7.0 miNE (50°)8.1 mphMostly Cloudy
6:41 PM71.6 °F62.6 °F73 %30.24 in7.0 miCalmMostly Cloudy
7:40 PM69.8 °F62.6 °F78 %30.26 in7.0 miCalmMostly Cloudy
8:40 PM69.0 °F66.0 °F86 %30.31 in6.0 miNE (50°)4.5 mphScattered Clouds
8:41 PM69.8 °F62.6 °F78 %30.28 in7.0 miCalmMostly Cloudy
9:41 PM66.2 °F60.8 °F83 %30.28 in7.0 miCalmPartly Cloudy
10:40 PM64.4 °F60.8 °F88 %30.28 in7.0 miCalmPartly Cloudy
Hourly data recorded from MMTM, located miles away from La Tima, Tamaulipas







STORIES FROM OUR PARTNERS